FW5387 Weather Reports


time (UTC)temp
F
wind
direction
speed
knots
gust
knots
rain 1hr
in
rain 24hr
in
rain mn
in
humidity
%
barometer
mb
20260506013037 79 309 5.2 7.0 0.00 0.00 0.00 37 1013.6
20260506011536 80 313 4.3 7.0 0.00 0.00 0.00 36 1013.5
20260506010110 81 312 4.3 8.7 0.00 0.00 0.00 36 1013.5
20260506004607 82 299 5.2 8.7 0.00 0.00 0.00 35 1013.5
20260506003034 83 300 4.3 9.6 0.00 0.00 0.00 33 1013.4
20260506001610 83 337 2.6 7.8 0.00 0.00 0.00 33 1013.5
20260505234535 83 3 2.6 7.8 0.00 0.00 0.00 31 1013.7
20260505233146 83 341 3.5 8.7 0.00 0.00 0.00 33 1013.8
20260505231533 83 9 3.5 7.8 0.00 0.00 0.00 31 1013.9
20260505230108 84 349 3.5 9.6 0.00 0.00 0.00 32 1014.0
20260505224537 83 345 3.5 7.8 0.00 0.00 0.00 32 1014.0
20260505223035 83 359 3.5 8.7 0.00 0.00 0.00 31 1014.1
20260505220035 82 332 2.6 7.8 0.00 0.00 0.00 33 1014.4
20260505214536 83 332 4.3 12.2 0.00 0.00 0.00 33 1014.5
20260505213034 83 343 3.5 7.8 0.00 0.00 0.00 36 1014.6
20260505204535 80 345 3.5 8.7 0.00 0.00 0.00 41 1014.8
20260505203038 80 12 3.5 10.4 0.00 0.00 0.00 40 1014.8
20260505201534 80 351 1.7 6.1 0.00 0.00 0.00 40 1014.9
20260505194651 79 322 2.6 8.7 0.00 0.00 0.00 43 1015.1
20260505193032 78 337 2.6 7.8 0.00 0.00 0.00 43 1015.1
20260505191533 76 313 1.7 5.2 0.00 0.00 0.00 46 1015.2
20260505190036 75 10 3.5 7.8 0.00 0.00 0.00 46 1015.3
20260505184534 74 359 2.6 6.1 0.00 0.00 0.00 47 1015.3
20260505181535 73 353 3.5 7.8 0.00 0.00 0.00 49 1015.3
20260505180035 72 334 2.6 7.8 0.00 0.00 0.00 51 1015.3
20260505174536 71 336 2.6 7.0 0.00 0.00 0.00 52 1015.3
20260505173035 70 332 3.5 7.8 0.00 0.00 0.00 53 1015.2
20260505170107 68 359 2.6 5.2 0.00 0.00 0.00 57 1015.1
20260505164536 65 337 1.7 5.2 0.00 0.00 0.00 62 1015.1
20260505163033 63 6 1.7 5.2 0.00 0.00 0.00 65 1015.1
20260505161536 63 53 1.7 4.3 0.00 0.00 0.00 66 1015.1
20260505153035 60 46 0.9 2.6 0.00 0.00 0.00 70 1014.9
20260505151537 59 59 0.9 2.6 0.00 0.00 0.00 72 1014.8
20260505124539 52 45 0.0 0.9 0.00 0.00 0.00 73 1013.5
20260505123036 53 49 0.0 3.5 0.00 0.00 0.00 70 1013.4
20260505121636 54 90 0.0 2.6 0.00 0.00 0.00 67 1013.3
20260505120036 56 67 0.9 2.6 0.00 0.00 0.00 65 1013.3
20260505114531 56 283 0.0 1.7 0.00 0.00 0.00 65 1013.2
20260505113036 55 270 0.0 0.9 0.00 0.00 0.00 66 1013.2
20260505111536 56 273 0.0 3.5 0.00 0.00 0.00 64 1013.1
20260505101535 58 220 1.7 5.2 0.00 0.00 0.00 63 1012.8
20260505100053 58 212 2.6 6.1 0.00 0.00 0.00 63 1012.7
20260505094534 58 204 3.5 6.1 0.00 0.00 0.00 63 1012.7
20260505091535 58 238 3.5 8.7 0.00 0.00 0.00 64 1012.5
20260505090051 58 236 3.5 7.0 0.00 0.00 0.00 65 1012.5
20260505084537 58 239 2.6 7.0 0.00 0.00 0.00 64 1012.5
20260505083033 58 236 2.6 6.1 0.00 0.00 0.00 63 1012.5
20260505081536 59 238 0.9 3.5 0.00 0.00 0.00 63 1012.5
20260505080037 60 253 2.6 6.1 0.00 0.00 0.00 61 1012.5
20260505074536 61 259 2.6 5.2 0.00 0.00 0.00 60 1012.4
20260505073036 62 227 3.5 8.7 0.00 0.00 0.00 60 1012.3
20260505071533 62 236 5.2 12.2 0.00 0.00 0.00 59 1012.1
20260505064536 63 239 7.0 13.0 0.00 0.00 0.00 58 1011.8
20260505063034 63 234 7.8 16.5 0.00 0.00 0.00 57 1011.9
20260505060040 63 248 9.6 16.5 0.00 0.00 0.00 55 1011.6
20260505054536 64 249 9.6 18.2 0.00 0.00 0.00 54 1011.5
20260505053037 64 250 11.3 20.0 0.00 0.00 0.00 53 1011.4
20260505041551 65 243 10.4 20.0 0.00 0.00 0.00 45 1011.1
20260505040049 65 247 10.4 19.1 0.00 0.00 0.00 44 1011.0
20260505034529 66 248 8.7 15.6 0.00 0.00 0.00 43 1010.7
20260505033036 67 249 9.6 17.4 0.00 0.00 0.00 42 1010.6
20260505031546 68 247 10.4 19.1 0.00 0.00 0.00 40 1010.3
20260505031535 69 246 10.4 20.0 0.00 0.00 0.00 38 1010.1
20260505024534 70 251 10.4 22.6 0.00 0.00 0.00 36 1010.1
20260505023107 71 250 11.3 20.0 0.00 0.00 0.00 34 1010.1
20260505021535 73 248 11.3 20.0 0.00 0.00 0.00 32 1010.0
20260505020033 74 252 12.2 20.0 0.00 0.00 0.00 30 1009.9
20260505014536 75 250 11.3 20.0 0.00 0.00 0.00 29 1009.9